RH
66 69 72 72 69 71 71 73 76 77 76 74 71 75 76 72 77 74 73 74 76 74 75 76 79 79 69 82 96 75 87 82 56 51 42 38 42 44 43 30 34 39 36 31 32 30 27
70 67 69 71 71 69 71 74 76 78 77 75 72 75 77 76 74 77 76 72 65 66 70 68 72 74 64 94 78 79 75 55 43 36 36 35 38 32 32 31 35 36 35 33 32 29 28
68 68 69 67 70 72 72 73 76 78 77 75 74 76 78 77 75 74 73 68 65 66 69 68 62 48 75 88 74 63 47 42 35 34 39 32 30 29 31 37 31 34 40 39 35 35 35
69 70 70 70 70 72 71 73 78 78 78 78 75 78 78 78 77 79 75 73 71 70 70 70 64 46 74 54 59 44 34 36 33 31 33 31 27 31 32 31 32 35 39 55 39 38 39
69 70 71 71 73 73 73 76 78 78 79 80 79 79 79 78 77 78 79 69 68 65 66 62 52 43 61 46 42 35 30 34 32 32 31 21 31 38 36 45 42 39 72 49 46 36 39
73 73 74 74 73 74 75 76 78 79 80 81 82 83 81 79 81 78 78 74 70 61 50 40 28 47 43 47 44 34 29 31 35 39 40 40 38 44 41 49 58 42 58 37 45 45 40
74 76 75 75 75 75 75 77 78 78 80 82 83 84 83 80 81 75 69 63 57 52 42 52 49 47 43 38 36 39 30 31 31 36 41 41 45 74 44 34 30 28 30 37 43 42 46
78 76 78 78 76 76 76 77 78 79 80 82 84 85 84 77 75 74 60 55 71 70 54 42 40 40 37 37 40 43 34 34 40 40 38 45 53 39 37 31 24 22 29 45 44 40 39
80 80 78 79 79 79 77 76 77 79 82 83 85 86 84 80 76 61 57 62 61 58 53 42 41 45 48 39 46 48 42 36 35 40 41 50 44 33 31 36 35 44 36 41 46 40 40
77 74 77 77 78 81 81 79 77 78 82 85 85 84 83 78 65 52 58 53 60 61 91 61 43 42 38 45 48 39 38 44 43 46 41 45 36 32 39 42 45 49 41 38 40 59 80
74 78 77 79 81 82 83 82 79 79 82 86 85 82 80 73 58 54 58 54 60 67 90 51 45 34 37 44 45 43 38 38 45 41 52 61 57 50 55 51 44 56 47 48 48 59 77
70 72 77 82 83 84 86 86 84 82 84 86 86 80 76 62 61 62 60 61 62 93 84 59 43 43 40 40 38 39 42 41 46 44 48 56 49 55 53 47 46 45 47 46 50 56 91
72 68 74 78 81 82 84 86 86 82 83 85 83 74 61 48 67 61 62 72 98 92 45 57 54 41 40 41 39 42 46 51 64 81 94 62 58 56 49 55 49 47 54 96 92 94 89
78 78 76 79 80 81 82 84 86 84 83 86 71 76 70 56 60 64 69 81 80 62 52 46 47 43 49 45 45 44 48 64 47 54 87 93 82 63 49 59 60 59 65 96 78 87 81
77 82 80 80 80 80 81 83 85 85 86 82 72 70 61 64 63 68 74 97 92 59 43 44 46 46 51 46 47 46 52 56 50 48 63 76 82 59 58 52 58 71 83 58 84 81 93
77 83 82 81 82 82 82 82 85 85 85 78 69 63 68 61 65 76 88 77 66 50 45 45 48 46 42 45 50 51 54 51 53 50 50 47 81 56 61 61 65 69 54 83 90 91 87
78 81 83 83 84 85 84 83 85 85 83 75 74 71 66 61 71 73 97 74 54 48 53 55 47 44 44 46 44 45 48 57 50 53 50 51 57 76 66 70 69 70 73 71 70 78 92
79 80 80 85 86 87 87 86 86 85 82 81 74 94 65 64 84 66 82 58 62 54 54 53 53 47 46 47 47 48 51 57 49 52 57 60 62 90 63 60 56 63 63 60 91 82 76
80 80 81 86 87 88 90 89 87 85 79 73 55 75 66 72 87 81 63 56 54 54 54 52 50 49 46 43 52 47 52 63 56 56 66 57 62 80 75 68 62 69 59 60 57 65 81
83 83 84 86 87 88 90 90 88 84 80 77 62 95 70 58 51 53 60 61 65 64 55 50 49 48 48 48 46 51 49 64 64 59 70 67 54 59 70 49 54 69 58 60 65 93 78
86 88 86 86 86 87 90 90 88 84 79 78 64 75 63 85 61 52 56 54 54 58 55 52 51 51 46 49 46 45 42 64 66 73 66 63 71 66 59 53 47 46 45 50 72 69 72
87 89 88 86 86 87 89 91 88 83 80 68 68 64 63 55 52 56 64 57 50 49 51 54 58 44 46 49 44 46 41 43 46 70 70 61 76 68 77 55 52 54 45 43 42 50 60
87 89 89 88 87 88 88 91 89 84 78 70 66 61 59 73 56 59 54 52 53 54 55 49 51 51 49 53 52 50 47 48 53 57 68 65 75 78 82 57 59 61 44 44 45 42 38
82 87 88 89 88 88 88 90 91 85 81 72 71 65 66 67 56 53 53 54 55 56 61 51 54 58 61 50 50 58 57 50 52 52 46 61 66 75 91 76 86 46 41 39 40 36 36
81 82 85 87 87 87 88 89 90 85 81 75 71 74 72 77 58 54 53 56 53 52 57 55 52 58 56 60 61 56 60 60 60 65 68 60 67 84 93 88 56 40 47 46 45 42 35
80 81 83 85 86 87 87 89 90 88 79 81 79 76 74 76 68 44 56 55 59 63 60 55 61 60 65 66 60 63 60 46 80 89 73 70 66 81 76 85 69 39 43 37 39 51 33
81 81 83 84 86 87 88 89 91 93 81 84 86 78 82 82 65 59 63 65 58 67 71 58 66 76 68 71 72 70 71 47 52 69 92 81 79 91 80 84 64 42 43 44 62 55 44
83 83 83 84 87 88 89 91 92 94 87 82 90 78 88 88 79 60 53 62 65 64 73 63 71 76 78 84 76 70 66 54 61 60 76 82 88 87 77 82 82 46 48 54 52 52 46
83 84 84 85 89 92 92 92 94 95 95 85 96 73 68 88 88 72 62 61 63 58 69 64 69 62 65 87 78 72 68 63 57 59 58 66 55 62 60 62 48 45 48 44 44 46 50
Wind_Speed
17 16 17 17 17 17 16 16 18 19 20 21 22 22 21 19 18 20 21 21 20 18 18 12 17 13 6 10 6 6 12 13 14 11 12 14 15 10 7 7 4 10 5 9 7 7 7
17 17 17 16 17 16 17 17 17 18 18 20 21 21 21 18 15 16 19 18 17 17 15 7 4 6 5 19 9 7 10 13 11 6 10 12 11 8 5 5 0 7 9 9 8 6 5
18 17 17 17 16 17 17 17 17 17 17 18 19 19 19 19 14 11 11 13 10 12 12 12 10 14 26 7 6 9 11 7 6 8 10 8 3 7 7 7 8 13 12 7 6 2 3
18 18 18 18 17 16 17 17 17 17 17 16 17 17 17 17 16 15 7 5 5 10 7 11 10 10 7 6 10 11 11 6 6 2 6 7 9 8 5 7 7 4 6 5 4 2 2
19 19 18 18 18 18 17 17 17 17 16 16 16 15 15 14 14 13 12 6 4 7 4 8 5 11 6 4 1 7 6 3 4 2 4 5 4 3 4 6 4 4 3 8 4 4 1
19 19 19 18 18 19 18 17 16 16 15 15 15 15 14 13 11 10 13 10 10 7 4 5 7 7 5 4 2 2 4 2 2 4 4 3 3 5 3 4 4 6 4 6 6 1 2
19 19 19 19 18 18 19 18 16 16 15 15 14 13 14 13 11 10 8 4 4 4 17 14 10 9 7 6 4 7 4 2 4 3 4 3 3 6 7 6 8 7 7 8 6 2 2
18 20 19 20 19 19 18 19 18 16 14 15 15 15 13 12 12 10 3 4 3 3 9 11 12 10 8 7 7 17 12 3 1 4 2 8 8 6 6 8 4 5 9 5 4 2 1
18 19 20 20 20 20 19 19 18 17 16 13 13 14 15 15 10 4 5 4 3 8 2 9 5 5 3 6 7 10 12 6 8 14 12 10 3 6 3 8 10 10 5 4 4 4 3
17 19 20 21 22 21 20 19 18 17 16 15 12 11 12 12 1 1 3 2 2 3 5 13 9 6 7 1 6 4 5 2 8 8 8 7 5 2 7 6 8 4 6 4 5 2 2
16 17 18 20 21 22 22 22 20 18 15 14 13 10 10 5 3 0 3 2 2 1 5 8 6 4 4 6 2 7 6 9 11 5 4 3 9 8 9 5 7 4 3 4 3 4 4
15 16 17 18 19 20 21 22 21 18 16 11 10 10 9 2 3 3 3 3 2 3 3 3 4 2 7 8 4 2 2 6 0 14 14 5 2 5 3 4 7 5 4 3 2 3 3
13 16 16 17 18 19 20 21 21 20 18 11 6 5 6 3 2 1 2 3 4 7 3 2 4 2 8 6 5 4 8 7 4 6 5 4 4 2 3 3 4 5 1 1 4 4 4
16 15 14 17 18 20 21 22 22 21 19 10 3 3 2 4 3 2 2 1 9 3 3 1 2 4 4 4 2 2 4 3 5 3 5 5 1 5 4 4 3 4 2 4 3 1 2
14 15 14 16 17 19 21 22 22 21 17 8 5 2 2 3 2 3 2 8 4 1 3 3 4 3 2 2 2 2 4 3 5 8 2 3 3 2 4 4 5 1 1 2 3 4 3
14 14 15 16 17 19 21 22 22 21 18 8 3 2 2 3 1 2 5 5 3 5 2 4 2 4 4 3 3 2 1 4 3 5 6 3 4 2 3 3 0 3 3 2 2 1 4
12 14 14 15 17 18 20 21 22 22 17 7 3 1 1 1 1 1 5 4 5 3 5 5 3 1 4 3 4 2 4 1 2 2 5 4 1 2 1 6 4 1 2 3 1 2 3
11 14 15 15 16 18 20 21 22 22 20 2 3 4 1 1 4 4 4 4 3 2 0 2 3 5 6 2 3 3 4 5 3 2 1 2 2 4 3 3 3 3 3 6 3 2 3
11 13 14 14 15 17 19 20 22 21 15 4 2 1 2 0 4 3 2 3 4 1 2 3 3 4 4 4 1 3 5 0 2 2 3 3 2 0 1 1 2 4 4 3 3 3 4
11 12 12 13 14 15 18 20 22 22 15 2 2 3 4 4 1 3 2 2 3 1 1 2 2 2 2 1 3 2 3 2 2 3 1 2 2 3 3 2 1 3 6 8 6 3 5
10 11 11 11 13 15 16 19 23 24 19 2 4 2 1 3 5 4 3 1 3 2 1 1 3 2 3 2 2 1 4 4 3 2 2 4 3 2 4 6 7 8 9 9 13 12 6
10 11 12 11 10 11 14 17 22 26 25 4 3 2 1 2 1 3 0 4 3 3 1 4 1 3 2 2 3 2 3 4 2 4 2 2 4 4 5 10 8 10 12 15 16 15 17
11 10 10 11 11 10 11 13 17 23 19 3 1 2 1 1 2 3 2 2 3 4 3 3 3 4 4 1 4 6 5 4 1 4 6 4 2 1 5 5 7 10 17 18 9 7 12
11 10 10 10 10 10 9 11 13 17 15 2 3 2 2 2 0 3 1 2 1 1 2 3 2 2 2 4 5 4 5 5 5 5 4 2 2 1 5 5 3 9 4 3 6 7 10
11 11 11 11 11 9 8 7 9 11 15 3 2 3 3 2 2 3 2 1 2 3 2 2 2 3 4 3 2 3 2 1 0 5 7 2 2 2 2 3 10 2 1 2 3 1 8
13 11 11 11 12 10 9 6 5 5 9 3 2 3 2 2 1 4 2 2 2 2 3 3 2 2 2 2 2 3 3 2 3 2 2 3 3 1 2 3 5 1 3 3 3 1 5
15 13 12 11 10 9 9 8 4 2 2 2 2 3 3 2 2 2 2 2 2 1 2 3 4 2 1 2 3 3 4 2 3 5 5 4 4 8 6 4 8 1 5 2 2 2 6
16 14 12 10 9 9 9 8 6 5 5 1 0 1 2 3 3 3 3 3 2 2 1 2 0 1 1 2 2 3 2 2 2 4 6 7 6 4 4 5 10 3 3 1 1 3 4
17 15 12 10 9 8 7 7 7 7 8 6 2 0 0 2 3 3 5 5 2 1 1 3 1 1 3 1 2 3 2 2 3 3 2 4 6 4 7 5 1 2 3 2 2 1 2
Wind_Direction
25 19 18 13 12 6 2 360 360 359 359 357 8 5 6 17 34 33 40 49 50 52 70 86 106 143 150 66 54 305 347 309 285 240 242 219 176 192 162 141 171 102 84 70 84 48 60
22 21 19 14 12 8 4 4 3 360 4 358 7 8 8 6 22 35 49 53 55 56 55 82 114 195 108 67 300 314 310 284 255 223 236 243 191 183 155 86 168 115 115 108 93 78 28
23 20 16 12 13 9 5 5 5 3 6 1 4 11 10 13 17 41 57 51 36 45 48 36 74 96 62 110 223 248 247 258 303 286 265 222 117 72 82 80 106 129 111 98 61 59 64
20 21 17 13 7 9 5 6 4 8 5 3 2 8 8 9 3 0 357 29 4 5 360 354 359 81 93 244 233 272 194 234 225 346 30 350 48 110 85 122 166 161 156 103 33 299 242
19 18 17 14 8 4 7 5 4 6 7 360 1 1 1 0 359 354 336 323 0 345 325 330 22 87 109 200 329 323 146 148 118 71 38 37 328 82 128 158 123 244 159 98 111 19 17
16 17 14 13 9 4 3 4 4 3 3 1 357 354 353 347 344 342 323 296 307 282 255 267 36 75 47 42 358 67 335 156 111 150 132 186 187 141 181 166 166 195 146 122 120 63 252
16 15 14 11 8 5 2 1 1 2 359 355 352 350 347 342 323 317 317 260 331 31 48 67 55 77 51 332 132 10 331 174 169 235 120 258 126 73 28 346 289 120 118 105 98 76 345
14 14 13 10 8 6 4 359 356 355 358 352 346 340 348 348 312 317 257 39 29 335 59 59 53 45 38 322 39 4 337 176 241 80 5 49 52 11 305 295 61 164 140 86 78 132 229
17 11 11 9 7 4 2 1 357 351 350 351 344 336 339 342 326 343 70 72 336 333 50 49 64 38 325 16 40 1 358 355 88 63 73 79 14 284 264 24 61 27 54 105 92 180 176
12 17 11 7 4 0 357 356 358 355 347 343 344 336 334 336 21 322 47 18 342 333 73 342 15 37 347 16 65 29 349 317 32 65 76 64 296 62 70 54 346 87 348 51 55 51 142
2 6 7 3 359 355 352 351 353 351 351 342 341 340 331 12 328 48 45 317 334 280 65 314 356 327 38 61 335 38 354 45 60 97 110 13 23 40 58 357 335 117 343 53 339 102 57
360 4 358 355 354 350 348 345 346 347 344 344 341 333 320 282 103 41 329 302 270 51 58 353 347 8 81 64 75 128 98 52 270 73 75 95 84 20 55 44 41 159 194 197 242 79 36
355 0 355 348 349 350 348 345 345 349 348 342 349 330 19 314 55 15 312 228 41 61 263 354 18 28 77 65 78 39 73 41 63 77 23 17 65 152 320 174 197 239 225 356 12 17 217
345 347 348 346 346 347 347 347 346 351 351 350 0 286 66 58 2 311 208 347 64 249 78 37 277 104 51 347 50 151 88 101 45 63 145 144 263 3 336 20 25 31 356 135 160 148 284
341 343 344 344 345 344 346 347 347 351 352 342 332 209 114 35 334 283 232 53 144 172 103 161 207 217 118 87 305 144 54 58 33 7 24 142 96 124 17 1 356 105 56 8 75 64 55
331 338 342 343 343 341 343 347 348 350 353 342 280 244 59 330 308 264 73 101 82 20 4 267 41 303 111 79 189 139 144 359 89 21 341 40 98 308 93 303 26 330 152 80 339 154 255
324 329 337 343 343 340 340 345 347 349 348 341 262 327 186 127 293 52 76 70 107 74 7 338 10 144 67 108 352 59 65 88 10 71 309 350 185 141 70 207 186 153 233 261 354 161 185
317 320 331 337 342 342 340 342 346 350 343 284 301 39 181 160 53 42 39 14 296 74 106 36 291 346 17 346 94 113 105 57 38 325 42 89 306 167 192 79 36 332 303 173 125 264 266
313 316 322 331 337 340 340 341 344 350 2 318 40 283 251 156 65 73 159 85 32 50 52 10 36 19 353 10 6 60 88 239 105 15 27 10 267 163 170 152 160 251 206 264 314 85 242
296 307 313 323 333 337 340 341 342 345 354 298 349 17 344 40 354 69 129 83 112 76 27 350 7 277 300 252 58 35 112 70 44 63 332 315 302 231 189 149 190 204 208 200 195 169 215
291 300 307 317 328 335 340 343 342 341 345 321 20 44 127 358 24 33 358 333 134 141 203 273 195 260 351 324 197 156 72 141 193 126 284 323 276 330 272 270 264 238 238 226 208 218 202
281 291 300 305 316 335 342 346 347 343 336 69 34 7 226 103 227 282 175 17 336 116 256 130 268 20 245 279 62 339 5 196 209 136 270 135 291 4 290 255 250 263 253 233 239 233 241
264 273 289 303 316 333 346 350 353 351 347 58 229 160 199 103 308 298 54 78 47 323 36 2 350 310 224 342 8 329 312 305 294 169 198 180 236 55 274 18 315 283 245 223 232 221 225
255 261 272 286 301 318 338 351 1 358 5 340 16 292 299 131 188 39 354 341 261 138 326 118 287 273 75 312 286 259 277 271 294 250 246 191 208 198 270 337 266 244 56 7 233 209 223
246 250 260 268 277 289 309 337 360 7 355 10 342 322 345 275 111 154 142 249 292 228 266 299 34 38 341 301 284 273 173 268 158 35 349 143 303 280 210 249 285 278 159 121 128 264 220
244 248 247 253 268 273 279 293 329 7 360 323 8 307 309 318 141 116 162 112 297 243 168 172 107 352 297 278 243 256 234 186 181 155 317 304 253 254 186 241 255 87 147 37 64 243 50
245 249 252 252 250 266 281 285 260 261 26 14 333 355 305 285 134 194 203 129 127 198 252 143 161 192 304 220 236 227 244 89 225 193 156 158 211 214 234 276 290 5 131 71 121 202 43
232 235 243 252 252 260 264 264 238 215 184 143 33 36 34 312 281 184 185 171 132 215 274 172 52 296 186 229 236 241 239 187 325 149 175 171 163 195 197 211 255 103 73 201 165 36 29
230 230 232 234 237 241 248 250 233 228 203 172 203 51 239 226 281 327 299 293 331 253 176 196 26 325 245 227 333 12 271 240 223 249 223 216 198 176 199 222 137 166 304 320 248 64 69